Weather reports worldwide

Advertisment
Destin, fl, United States of America (2074404): temperature & dewpoint: 30.05.2020 02:00:00 - 05.06.2020 02:00:00 (CDT)Destin, fl, United States of America (2074404): wind speed: 30.05.2020 02:00:00 - 05.06.2020 02:00:00 (CDT)Destin, fl, United States of America (2074404): wind direction: 30.05.2020 02:00:00 - 05.06.2020 02:00:00 (CDT)Destin, fl, United States of America (2074404): reduced air pressure: 30.05.2020 02:00:00 - 05.06.2020 02:00:00 (CDT)Destin, fl, United States of America (2074404): visibility: 30.05.2020 02:00:00 - 05.06.2020 02:00:00 (CDT)Destin, fl, United States of America (2074404): precipitation: 30.05.2020 02:00:00 - 05.06.2020 02:00:00 (CDT)
Date & Time tt [°C] td [°C] ff [km/h] ff [kn] dd ppp [hPa] vv [km] rr [mm]
05.06.2020 02:00:00 23,9 21,1 0 0 N 1014,1 16 -
05.06.2020 01:00:00 25,0 20,6 0 0 N 1014,2 16 -
05.06.2020 00:00:00 26,7 20,6 0 0 N 1014,4 16 -
04.06.2020 23:00:00 26,7 21,1 0 0 N 1014,3 16 -
04.06.2020 22:00:00 26,7 21,1 9 5 S 1013,8 16 -
04.06.2020 21:00:00 27,2 20,6 8 4 - 1013,7 16 -
04.06.2020 20:00:00 27,2 20,0 5 3 SSW 1013,6 16 -
04.06.2020 19:00:00 27,8 20,0 8 4 S 1013,1 16 -
04.06.2020 18:00:00 28,3 20,6 5 3 - 1012,5 16 -
04.06.2020 17:00:00 28,9 20,6 11 6 SSW 1013,2 16 -
04.06.2020 16:00:00 28,9 21,1 9 5 - 1013,5 16 -
04.06.2020 15:00:00 29,4 21,7 9 5 - 1013,8 16 -
04.06.2020 14:00:00 28,9 22,2 13 7 SSE 1014,2 16 -
04.06.2020 13:00:00 28,9 21,1 13 7 SSE 1014,9 16 -
04.06.2020 12:00:00 28,3 21,7 11 6 SE 1015,4 16 -
04.06.2020 11:00:00 27,8 22,2 0 0 N 1015,5 16 -
04.06.2020 10:00:00 26,7 22,2 9 5 N 1015,6 16 -
04.06.2020 09:00:00 25,0 22,2 9 5 - 1015,9 16 -
04.06.2020 08:00:00 25,0 22,2 0 0 N 1015,5 16 1,8
04.06.2020 07:00:00 24,4 21,7 0 0 N 1014,9 6 1,5
04.06.2020 06:00:00 24,4 22,8 0 0 N 1014,2 16 -
04.06.2020 05:00:00 25,6 21,7 0 0 N 1013,4 16 -
04.06.2020 04:00:00 25,6 22,2 0 0 N 1013,4 16 -
04.06.2020 03:00:00 24,4 20,6 5 3 WSW 1013,8 16 0,5
04.06.2020 02:00:00 25,6 21,7 5 3 SW 1014,0 16 -
04.06.2020 01:00:00 25,6 21,7 5 3 SSW 1014,6 16 -
04.06.2020 00:00:00 25,6 22,2 11 6 S 1015,2 16 -
03.06.2020 23:00:00 25,6 22,2 5 3 S 1015,7 16 -
03.06.2020 22:00:00 24,4 22,2 0 0 N 1015,9 16 0,0
03.06.2020 21:00:00 24,4 21,7 5 3 - 1015,3 16 0,0
03.06.2020 20:00:00 24,4 21,7 5 3 S 1015,1 16 -
03.06.2020 19:00:00 25,0 22,8 0 0 N 1014,8 16 1,0
03.06.2020 18:00:00 25,0 21,7 0 0 N 1015,0 16 0,3
03.06.2020 17:00:00 23,9 21,1 9 5 ESE 1015,3 16 5,1
03.06.2020 16:00:00 23,9 20,6 16 9 E 1015,1 2,8 3,3
03.06.2020 15:00:00 27,8 23,3 11 6 S 1015,1 16 -
03.06.2020 14:00:00 27,8 23,3 9 5 S 1015,8 16 -
03.06.2020 13:00:00 27,8 23,9 11 6 SSE 1016,7 16 -
03.06.2020 12:00:00 28,9 22,2 9 5 - 1017,3 16 0,0
03.06.2020 11:00:00 27,8 22,8 8 4 NE 1017,7 16 0,0
03.06.2020 10:00:00 26,1 22,8 8 4 NE 1018,0 16 0,0
03.06.2020 09:00:00 25,6 21,7 11 6 ENE 1018,3 16 -
03.06.2020 08:00:00 25,0 22,2 9 5 ENE 1018,1 16 -
03.06.2020 07:00:00 24,4 22,2 9 5 ENE 1017,7 16 -
03.06.2020 06:00:00 23,9 22,2 5 3 E 1017,3 16 -
03.06.2020 05:00:00 23,9 22,2 0 0 N 1016,8 16 -
03.06.2020 04:00:00 24,4 22,2 0 0 N 1016,8 16 -
03.06.2020 03:00:00 24,4 22,8 5 3 E 1017,3 16 -
03.06.2020 02:00:00 24,4 23,3 0 0 N 1017,8 16 -
03.06.2020 01:00:00 24,4 23,3 5 3 ENE 1018,6 16 -
03.06.2020 00:00:00 24,4 22,8 5 3 E 1018,9 16 -
02.06.2020 23:00:00 25,0 22,8 0 0 N 1019,1 16 -
02.06.2020 22:00:00 25,0 22,2 0 0 N 1019,2 16 -
02.06.2020 21:00:00 25,0 22,2 5 3 E 1018,7 16 -
02.06.2020 20:00:00 25,6 21,1 8 4 ENE 1018,4 16 -
02.06.2020 19:00:00 25,6 21,7 8 4 E 1018,5 16 -
02.06.2020 18:00:00 26,1 22,2 11 6 E 1018,3 16 -
02.06.2020 17:00:00 26,1 22,2 13 7 E 1018,8 16 0,0
02.06.2020 16:00:00 25,6 22,2 15 8 E 1018,7 13 0,0
02.06.2020 15:00:00 28,3 22,2 15 8 ESE 1019,0 16 -
02.06.2020 14:00:00 29,4 22,8 13 7 SSE 1019,1 16 -
02.06.2020 13:00:00 29,4 22,8 15 8 SSE 1019,8 16 -
02.06.2020 12:00:00 30,0 22,2 21 11 SE 1020,2 16 -
02.06.2020 11:00:00 28,3 21,7 21 11 E 1020,6 16 -
02.06.2020 10:00:00 27,8 21,7 11 6 ENE 1020,7 16 -
02.06.2020 09:00:00 26,1 21,1 13 7 ENE 1020,5 16 -
02.06.2020 08:00:00 26,1 20,6 21 11 E 1020,0 16 -
02.06.2020 07:00:00 24,4 20,0 15 8 E 1019,5 16 -
02.06.2020 06:00:00 25,0 20,6 13 7 E 1019,1 16 -
02.06.2020 05:00:00 25,0 21,1 15 8 E 1018,7 16 -
02.06.2020 04:00:00 25,0 21,7 13 7 E 1018,4 16 -
02.06.2020 03:00:00 25,6 22,2 16 9 E 1018,6 16 -
02.06.2020 02:00:00 26,1 21,7 11 6 E 1018,9 16 0,0
02.06.2020 01:00:00 26,1 23,3 11 6 E 1019,4 16 0,0
02.06.2020 00:00:00 26,7 23,3 8 4 ESE 1019,4 16 -
01.06.2020 23:00:00 27,2 23,9 5 3 SE 1019,4 16 -
01.06.2020 22:00:00 27,2 24,4 8 4 - 1019,3 16 -
01.06.2020 21:00:00 27,2 24,4 9 5 SE 1018,6 16 -
01.06.2020 20:00:00 27,8 24,4 9 5 SSE 1018,2 16 -
01.06.2020 19:00:00 28,3 23,9 11 6 SSE 1017,7 16 -
01.06.2020 18:00:00 29,4 23,3 11 6 S 1017,5 16 -
01.06.2020 17:00:00 31,1 19,4 13 7 S 1017,3 16 -
01.06.2020 16:00:00 31,7 18,9 13 7 S 1017,4 16 -
01.06.2020 15:00:00 31,7 18,9 13 7 S 1017,8 16 -
01.06.2020 14:00:00 32,8 17,2 9 5 - 1018,3 16 -
01.06.2020 13:00:00 32,2 15,6 15 8 SE 1018,6 16 -
01.06.2020 12:00:00 31,7 15,0 13 7 ESE 1019,0 16 -
01.06.2020 11:00:00 30,6 18,9 9 5 NE 1019,4 16 -
01.06.2020 10:00:00 27,2 18,3 11 6 ENE 1019,2 16 -
01.06.2020 09:00:00 26,1 18,3 13 7 NE 1019,1 16 -
01.06.2020 08:00:00 25,0 17,8 15 8 NE 1018,4 16 -
01.06.2020 07:00:00 23,9 17,2 9 5 NE 1017,9 16 -
01.06.2020 06:00:00 23,3 17,2 9 5 NE 1017,5 16 -
01.06.2020 05:00:00 23,9 17,2 11 6 N 1017,3 16 -
01.06.2020 04:00:00 24,4 16,7 8 4 NNE 1017,1 16 -
01.06.2020 03:00:00 25,6 16,7 9 5 NNE 1017,1 16 -
01.06.2020 02:00:00 26,1 16,1 13 7 N 1017,4 16 -
01.06.2020 01:00:00 25,6 16,7 9 5 N 1017,6 16 -
01.06.2020 00:00:00 26,7 17,2 9 5 N 1017,7 16 -
31.05.2020 23:00:00 27,2 17,2 9 5 N 1017,5 16 -
31.05.2020 22:00:00 27,8 16,7 9 5 N 1017,2 16 -
31.05.2020 21:00:00 28,9 16,1 11 6 N 1016,6 16 -
31.05.2020 20:00:00 30,0 14,4 13 7 N 1016,3 16 -
31.05.2020 19:00:00 28,3 22,2 5 3 - 1014,5 16 -
31.05.2020 18:00:00 30,0 21,1 8 4 S 1015,5 16 -
31.05.2020 17:00:00 30,0 21,7 9 5 - 1015,5 16 -
31.05.2020 16:00:00 30,6 20,0 9 5 - 1015,9 16 -
31.05.2020 15:00:00 31,1 20,6 9 5 SSW 1016,3 16 -
31.05.2020 14:00:00 31,1 20,6 9 5 - 1016,7 16 -
31.05.2020 13:00:00 33,3 16,1 13 7 N 1017,0 16 -
31.05.2020 12:00:00 32,2 17,2 5 3 - 1017,7 16 -
31.05.2020 11:00:00 31,7 17,2 13 7 N 1018,2 16 -
31.05.2020 10:00:00 29,4 17,8 13 7 N 1018,1 16 -
31.05.2020 09:00:00 27,8 17,8 15 8 NNE 1018,4 16 -
31.05.2020 08:00:00 26,1 17,8 15 8 N 1017,7 16 -
31.05.2020 07:00:00 25,0 18,9 11 6 N 1017,3 16 -
31.05.2020 06:00:00 24,4 18,3 11 6 N 1016,7 16 -
31.05.2020 05:00:00 24,4 19,4 13 7 N 1015,9 16 -
31.05.2020 04:00:00 25,6 18,9 13 7 N 1015,8 16 -
31.05.2020 03:00:00 25,6 19,4 11 6 N 1016,1 16 -
31.05.2020 02:00:00 26,1 20,0 8 4 N 1016,2 16 -
31.05.2020 01:00:00 26,7 20,6 8 4 N 1016,5 16 -
31.05.2020 00:00:00 26,1 22,2 0 0 N 1016,6 16 -
30.05.2020 23:00:00 27,8 22,2 0 0 N 1016,7 16 -
30.05.2020 22:00:00 27,8 23,9 8 4 W 1016,3 16 -
30.05.2020 21:00:00 27,8 23,3 8 4 - 1015,5 16 -
30.05.2020 20:00:00 28,3 22,2 8 4 - 1014,9 16 -
30.05.2020 19:00:00 28,3 22,2 5 3 - 1014,5 16 -
30.05.2020 18:00:00 28,9 22,8 9 5 - 1014,6 16 -
30.05.2020 17:00:00 30,0 21,7 9 5 - 1014,6 16 -
30.05.2020 16:00:00 30,6 22,8 9 5 - 1015,0 16 -
30.05.2020 15:00:00 30,6 22,8 11 6 - 1015,5 16 -
30.05.2020 14:00:00 30,0 22,8 11 6 - 1015,9 16 -
30.05.2020 13:00:00 30,6 23,3 9 5 - 1016,1 16 -
30.05.2020 12:00:00 29,4 22,8 15 8 S 1016,7 16 -
30.05.2020 11:00:00 30,0 22,2 9 5 S 1016,9 16 -
30.05.2020 10:00:00 30,0 21,1 8 4 - 1017,1 16 -
30.05.2020 09:00:00 27,8 21,1 9 5 N 1017,2 16 -
30.05.2020 08:00:00 26,7 21,7 9 5 N 1017,1 16 -
30.05.2020 07:00:00 25,6 21,7 9 5 NNW 1017,0 16 -
30.05.2020 06:00:00 25,0 21,7 0 0 N 1016,6 16 -
30.05.2020 05:00:00 25,6 22,2 0 0 N 1015,8 16 -
30.05.2020 04:00:00 26,1 22,2 0 0 N 1015,6 16 -
30.05.2020 03:00:00 26,1 22,2 5 3 WSW 1015,9 16 -
30.05.2020 02:00:00 26,1 22,2 0 0 N 1016,4 16 -

tt = temperature
td = dewpoint
ff = wind speed
dd = wind direction
ppp = reduced air pressure
vv = visibility
rr = precipitation

Next stations